Home   Weather   Neubrandenburg   Past weeks

Flag for Germany Past Weather in Neubrandenburg, Mecklenburg-Western Pomerania, Germany — Yesterday and Last 2 Weeks

Now
63 °F

Fog.


Feels Like: 63 °F
Forecast: 59 / 65 °F
Wind: 13 mph from West

Location: Heringsdorf

Current Time: Jun 23, 2017 at 5:22:38 pm

Latest Report: Jun 23, 2017 at 4:50 pm


Visibility: 3 mi

Pressure: 29.80 "Hg

Humidity: 94%

Dew Point: 61 °F

Location of NeubrandenburgLocation

Past Weather in Neubrandenburg — Graph

°F

Neubrandenburg Temperature Yesterday

Maximum temperature yesterday: 70 °F (at 11:20 am)
Minimum temperature yesterday: 63 °F (at 1:20 pm)
Average temperature yesterday: 67 °F

High & Low Weather Summary for the Past Weeks

 TemperatureHumidityPressure
High82 °F (Jun 19, 3:20 pm)94% (Jun 12, 8:50 am)30.24 "Hg (Jun 12, 8:50 am)
Low55 °F (Jun 16, 3:20 pm)38% (Jun 20, 4:50 pm)29.68 "Hg (Jun 23, 8:20 am)
Average67 °F63%29.99 "Hg
* Reported Jun 8 3:20 pm — Jun 23 3:50 pm, Neubrandenburg. Weather by CustomWeather, © 2017

Note: Actual official high and low records may vary slightly from our data, if they occured in-between our weather recording intervals... More about our weather records

Advertising

Neubrandenburg Weather History for the Previous 24 Hours

Scroll right to see more
 ConditionsComfort  
Time TempWeatherWind HumidityBarometerVisibility
3:50 pm
Fri, Jun 23
63 °FFog.13 mph94%29.80 "Hg2 mi
3:20 pm63 °FFog.13 mph94%29.80 "Hg3 mi
2:20 pm63 °FLight rain. Partly sunny.8 mph94%29.80 "Hg4 mi
1:50 pm63 °FLight rain. Fog.10 mph94%29.77 "Hg3 mi
1:20 pm63 °FLight rain. Partly sunny.10 mph94%29.77 "Hg4 mi
12:50 pm63 °FDrizzle. Partly sunny.10 mph94%29.77 "Hg4 mi
12:20 pm63 °FLight rain. Partly sunny.10 mph94%29.77 "Hg4 mi
11:50 am63 °FLight rain. Partly sunny.7 mph94%29.74 "Hg3 mi
11:20 am63 °FPartly sunny.10 mph94%29.74 "Hg5 mi
10:20 am64 °FPartly sunny.9 mph88%29.71 "HgN/A
9:50 am64 °FPartly sunny.10 mph88%29.71 "HgN/A
9:20 am64 °FFog.9 mph88%29.68 "Hg3 mi
8:50 am64 °FPartly sunny.8 mph88%29.68 "Hg4 mi
8:20 am64 °FPartly sunny.13 mph88%29.68 "Hg4 mi
5:50 pm
Thu, Jun 22
70 °FPassing clouds.8 mph64%29.77 "HgN/A
5:20 pm68 °FSunny.8 mph69%29.77 "Hg10 mi
Weather by CustomWeather, © 2017

See weather overviewHow to use our weather pages